Weather History for Bloomington, IL

Change the Weather History Date:

Saturday, July 6, 2013

  Actual Average Record
Temperature  
Mean Temperature 72 °F -  
Max Temperature 81 °F 92 °F 102 °F (2012)
Min Temperature 64 °F 65 °F 55 °F (2001)
Cooling Degree Days 8    
Growing Degree Days 22 (Base 50)    
Moisture  
Dew Point 67 °F    
Average Humidity 81    
Maximum Humidity 100    
Minimum Humidity 56    
Precipitation  
Precipitation 0.00 in - - ()
Sea Level Pressure  
Sea Level Pressure 30.03 in    
Wind  
Wind Speed 7 mph (South)    
Max Wind Speed 16 mph    
Max Gust Speed -    
Visibility 8 miles    
Events      
Averages and records for this station are not official NWS values.
T = Trace of Precipitation, MM = Missing Value Source: NWS Daily Summary

Daily Weather History Graph

Daily Weather History Graph

Search for Another Location

Airport:

Trip Planner

Search our weather history database for the weather conditions in past years. The results will help you decide how hot, cold, wet, or windy it might be!

Date:

Astronomy

Jul. 06, 2013 Rise Set
Actual Time 5:31 AM CDT 8:28 PM CDT
Civil Twilight 4:59 AM CDT 9:01 PM CDT
Nautical Twilight 4:17 AM CDT 9:42 PM CDT
Astronomical Twilight 3:29 AM CDT 10:31 PM CDT
Moon 4:17 AM CDT (7/6) 7:09 PM CDT (7/6)
Length of Visible Light 16h 02m
Length of Day
14h 56m
Waning Crescent, 2% of the Moon is Illuminated
Jul 6
Waning Crescent
Jul 8
New
Jul 15
First Quarter
Jul 22
Full
Jul 29
Last Quarter

Hourly Weather History & Observations

Time (CDT) Temp. Heat Index Dew Point Humidity Pressure Visibility Wind Dir Wind Speed Gust Speed Precip Events Conditions
12:56 AM 68.0 °F - 64.9 °F 90% 30.04 in 10.0 mi SSE 8.1 mph - N/A   Clear
1:56 AM 66.9 °F - 64.9 °F 93% 30.04 in 9.0 mi SSE 5.8 mph - N/A   Clear
2:56 AM 68.0 °F - 65.8 °F 93% 30.04 in 8.0 mi SSW 4.6 mph - N/A   Clear
3:56 AM 66.9 °F - 64.9 °F 93% 30.04 in 7.0 mi South 3.5 mph - N/A   Clear
4:56 AM 65.8 °F - 64.9 °F 97% 30.05 in 3.0 mi Calm Calm - N/A   Clear
5:40 AM 64.4 °F - 64.4 °F 100% 30.09 in 1.8 mi South 4.6 mph - N/A   Clear
5:56 AM 64.9 °F - 64.9 °F 100% 30.05 in 1.2 mi SSE 5.8 mph - N/A   Clear
6:56 AM 68.9 °F - 68.0 °F 97% 30.05 in 3.0 mi South 4.6 mph - N/A   Clear
7:56 AM 72.9 °F - 68.9 °F 87% 30.06 in 9.0 mi SSW 8.1 mph - N/A   Clear
8:56 AM 74.8 °F - 68.9 °F 82% 30.06 in 10.0 mi SSW 4.6 mph - N/A   Clear
9:56 AM 77.9 °F - 66.9 °F 69% 30.05 in 10.0 mi South 4.6 mph - N/A   Partly Cloudy
10:56 AM 79.0 °F - 65.8 °F 64% 30.05 in 10.0 mi South 5.8 mph - N/A   Mostly Cloudy
11:56 AM 81.0 °F 82.5 °F 63.9 °F 56% 30.03 in 10.0 mi SSW 4.6 mph - N/A   Mostly Cloudy
12:03 PM 80.6 °F 82.3 °F 64.4 °F 58% 30.07 in 10.0 mi SW 9.2 mph - N/A   Mostly Cloudy
12:56 PM 81.0 °F 83.0 °F 65.8 °F 60% 30.03 in 10.0 mi SW 9.2 mph - N/A   Scattered Clouds
1:56 PM 79.9 °F - 65.8 °F 62% 30.02 in 9.0 mi South 6.9 mph - N/A   Scattered Clouds
2:56 PM 79.0 °F - 66.9 °F 66% 30.02 in 10.0 mi South 8.1 mph - N/A   Clear
3:56 PM 77.9 °F - 66.9 °F 69% 30.01 in 10.0 mi SSE 10.4 mph - N/A   Partly Cloudy
4:56 PM 77.9 °F - 68.0 °F 71% 30.00 in 10.0 mi SE 10.4 mph - N/A   Clear
5:56 PM 77.9 °F - 70.0 °F 76% 29.99 in 10.0 mi SSE 10.4 mph - N/A   Clear
6:56 PM 74.8 °F - 70.0 °F 85% 30.00 in 10.0 mi SSE 10.4 mph - N/A   Clear
7:56 PM 74.8 °F - 68.9 °F 82% 30.00 in 10.0 mi SSE 13.8 mph - N/A   Clear
8:56 PM 72.9 °F - 66.9 °F 82% 30.00 in 10.0 mi SSE 9.2 mph - N/A   Clear
9:56 PM 70.9 °F - 68.0 °F 91% 30.02 in 10.0 mi South 10.4 mph - N/A   Clear
10:56 PM 70.9 °F - 68.0 °F 91% 30.00 in 10.0 mi South 16.1 mph - N/A   Clear
11:56 PM 70.9 °F - 65.8 °F 84% 30.03 in 10.0 mi South 3.5 mph - N/A   Clear